Regional Weather Roundup
Issued by NWS Green Bay, WI

Home | Current Version | Previous Version | Text Only | Print | Product List | Glossary On
Versions: 1 2 3 4 5 6 7 8 9 10 11 12 13 14 15 16 17 18 19 20 21 22 23 24 25 26 27 28 29 30 31 32 33 34 35 36 37 38 39 40 41 42 43 44 45 46 47 48 49 50
000
ASUS43 KGRB 231211
RWRGRB

NORTH-CENTRAL AND NORTHEAST WISCONSIN REGIONAL WEATHER ROUNDUP
NATIONAL WEATHER SERVICE GREEN BAY WI
700 AM CDT MON OCT 23 2017

WIZ005-009-010>012-018-019-231300-
NORTH CENTRAL WISCONSIN

CITY           SKY/WX    TMP DP  RH WIND       PRES   REMARKS
IRONWOOD       CLOUDY    47  38  71 S17G23    29.76F
MANITOWISH WTR CLOUDY    42  42 100 SE7       29.82F
ARBOR VITAE    CLOUDY    44  41  87 S6        29.83F
EAGLE RIVER    NOT AVBL
LAND O LAKES   CLOUDY    41  40  98 S3        29.87F
RHINELANDER    CLOUDY    44  40  85 S8        29.87F
PHILLIPS       CLOUDY    44  40  86 S7        29.82F
ANTIGO         CLOUDY    37  37 100 CALM      29.90S
TOMAHAWK       CLOUDY    40  39  98 CALM      29.87F
MERRILL        CLOUDY    34  34 100 E3        29.88F
$$

WIZ013-073-231300-
NORTHEAST WISCONSIN

CITY           SKY/WX    TMP DP  RH WIND       PRES   REMARKS
IRON MOUNTAIN  FOG       37  35  92 CALM      29.89F VSB 1/2
MARINETTE      FOG       43  43 100 CALM      29.94S VSB 1/4
OCONTO         CLOUDY    41  41 100 CALM      29.94R VSB 1/4
$$

WIZ017-030-035>037-045-231300-
CENTRAL WISCONSIN

CITY           SKY/WX    TMP DP  RH WIND       PRES   REMARKS
MEDFORD        CLOUDY    41  39  92 S7        29.85F
WAUSAU         CLOUDY    39  39 100 E5        29.88F
MOSINEE        MOCLDY    37  37 100 SE5       29.89F
MARSHFIELD     CLOUDY    40  38  93 S3        29.86F
WISC RAPIDS    CLOUDY    39  39 100 CALM      29.89F
STEVENS POINT  CLOUDY    37  37 100 CALM      29.90S
WAUPACA        FOG       41  40  97 CALM      29.91F VSB 1/4
SHAWANO        FOG       41  40  96 CALM      29.91F VSB 1/4
CLINTONVILLE   FOG       39  37  93 CALM      29.91F VSB 1/4
WAUTOMA        FOG      N/A N/A N/A MISG        N/A  VSB 1/2
$$

WIZ038-039-048-051-231300-
FOX VALLEY

CITY           SKY/WX    TMP DP  RH WIND       PRES   REMARKS
NWS GREEN BAY  FOG       43  43 100 CALM      29.92F VSB 1/4
APPLETON       FOG       43  43 100 CALM      29.92S VSB 1/16
OSHKOSH        MOCLDY    41  41 100 CALM      29.90F FOG
FOND DU LAC    MOCLDY    43  40  89 SE3       29.91F FOG
$$

WIZ022-050-052-231300-
EAST CENTRAL WISCONSIN

CITY           SKY/WX    TMP DP  RH WIND       PRES   REMARKS
EPHRAIM        FAIR      42  42  99 SE3       29.91F FOG
WASHINGTON ISL FAIR      39  39 100 CALM      29.93S FOG
STURGEON BAY   FOG       43  43 100 CALM      29.93F VSB 1/4
MANITOWOC      FOG       43  43 100 CALM      29.92F VSB 3/4
SHEBOYGAN      CLOUDY    45  45 100 CALM      29.92F FOG
$$

LMZ563-521-522-541>543-231300-
LAKESHORE

STATION/POSITION TIME  TEMP    WIND        PRES    VSBY  WAVE
                       AIR SEA DIR/SP/G                  HT/PER
                 (UTC) (F)     (DEG/KT/KT) (MB)    (MI)  (FT/S)
SHEBOYGAN LKSHOR 1200   48     350/  2/  2 1013.2F
KEWAUNEE LKSHORE 1148   44     290/  1/  2 1012.6F
NORTHPORT PIER   1200   46     180/  3/ 14 1013.2
N MID LAKE BUOY  1150   52 56  210/  6/  8 1014.4F         1
S GREEN BAY BUOY 1200   49 58  180/  4/  6 1013.1
SISTER BAY LKSHO 1204   46     150/  6/  8   N/A
MENOMINEE LKSHOR 1148   44     180/  1/  2 1013.1F
$$




USA.gov is the U.S. government's official web portal to all federal, state and local government web resources and services.